Notices

What’s New in latest Release from January 14th 2021:

·       In Historical Hourly Data Report, users can switch between Local Standard Time (LST) and Universal Time Coordinates (UTC) time.

·       In Historical Hourly Data Report, we have an addition of a new column to display hourly precipitation data for the stations where the data are available, from 2001 onwards.

·       Expanded the Search Options of the Canadian Historical Weather Radar, users now able to select 24 hours (1 image every hour) image viewing duration.

Please note that the IDF dataset is available through this link: Intensity-Duration-Frequency (IDF) Files .

Hourly Data Report for July 16, 2003

TORONTO CITY
ONTARIO

43°40'00.000" N
79°24'00.000" W
112.50 m
6158355
71508
XTO

Download Data

Hourly Data (July 2003)
Hourly Data Report for July 16, 2003
TIME
LST
Temp Definition
°C
Dew Point Definition
°C
Rel Hum Definition
%
Precip. Amount Definition
mm

Wind Dir Definition
10's deg

Wind Spd Definition
km/h
Visibility Definition
km
Stn Press Definition
kPa
Hmdx Definition


Wind Chill Definition


Weather Definition


00:00 19.2 19.0 99   LegendMM LegendMM LegendMM 99.41     LegendNANA
01:00 19.1 18.9 99   LegendMM LegendMM LegendMM 99.41     LegendNANA
02:00 19.7 19.6 99   LegendMM LegendMM LegendMM 99.38     LegendNANA
03:00 19.7 19.7 100   LegendMM LegendMM LegendMM 99.42     LegendNANA
04:00 19.5 19.2 98   LegendMM LegendMM LegendMM 99.49     LegendNANA
05:00 17.7 16.8 94   LegendMM LegendMM LegendMM 99.60     LegendNANA
06:00 16.8 14.4 86   LegendMM LegendMM LegendMM 99.72     LegendNANA
07:00 16.8 13.5 81   LegendMM LegendMM LegendMM 99.79     LegendNANA
08:00 16.7 12.7 77   LegendMM LegendMM LegendMM 99.84     LegendNANA
09:00 16.6 12.8 78   LegendMM LegendMM LegendMM 99.89     LegendNANA
10:00 17.9 14.0 78   LegendMM LegendMM LegendMM 99.96     LegendNANA
11:00 19.2 14.9 76   LegendMM LegendMM LegendMM 100.07     LegendNANA
12:00 20.4 15.5 73   LegendMM LegendMM LegendMM 100.08 25   LegendNANA
13:00 21.9 15.7 68   LegendMM LegendMM LegendMM 100.08 26   LegendNANA
14:00 22.5 15.9 66   LegendMM LegendMM LegendMM 100.10 27   LegendNANA
15:00 21.0 14.5 66   LegendMM LegendMM LegendMM 100.17 25   LegendNANA
16:00 22.2 14.6 62   LegendMM LegendMM LegendMM 100.19 26   LegendNANA
17:00 19.8 13.3 66   LegendMM LegendMM LegendMM 100.24     LegendNANA
18:00 18.4 13.2 72   LegendMM LegendMM LegendMM 100.31     LegendNANA
19:00 17.5 12.7 73   LegendMM LegendMM LegendMM 100.33     LegendNANA
20:00 17.2 12.7 75   LegendMM LegendMM LegendMM 100.35     LegendNANA
21:00 15.9 12.6 81   LegendMM LegendMM LegendMM 100.43     LegendNANA
22:00 15.2 12.8 86   LegendMM LegendMM LegendMM 100.49     LegendNANA
23:00 15.9 13.4 85   LegendMM LegendMM LegendMM 100.51     LegendNANA

Notes on Data Quality.

Legend

  • E = Estimated
  • M = Missing
  • NA = Not Available*
  • [empty] = Indicates an unobserved value
Date modified: